Time,TemperatureF,DewpointF,PressureIn,WindDirection,WindDirectionDegrees,WindSpeedMPH,WindSpeedGustMPH,Humidity,HourlyPrecipIn,Conditions,Clouds,dailyrainin,SoftwareType,DateUTC
2014-10-25 00:02:00,44.4,41.7,30.16,SSW,194,0.0,1.0,90,0.00,,,0.00,meteohub,2014-10-25 04:02:00,
2014-10-25 00:07:00,44.8,42.1,30.16,SSW,194,0.0,1.0,90,0.00,,,0.00,meteohub,2014-10-25 04:07:00,
2014-10-25 00:12:00,45.1,42.4,30.16,SSW,194,0.0,1.0,90,0.00,,,0.00,meteohub,2014-10-25 04:12:00,
2014-10-25 00:17:00,45.5,43.0,30.15,SSW,204,0.0,0.0,91,0.00,,,0.00,meteohub,2014-10-25 04:17:00,
2014-10-25 00:22:00,45.9,43.2,30.15,SSW,204,0.0,0.0,90,0.00,,,0.00,meteohub,2014-10-25 04:22:00,
2014-10-25 00:27:00,45.9,43.2,30.15,SSW,204,0.0,0.0,90,0.00,,,0.00,meteohub,2014-10-25 04:27:00,
2014-10-25 00:32:00,46.2,43.5,30.15,SSW,204,0.0,0.0,90,0.00,,,0.00,meteohub,2014-10-25 04:32:00,
2014-10-25 00:37:00,46.6,43.5,30.15,SSW,204,0.0,0.0,89,0.00,,,0.00,meteohub,2014-10-25 04:37:00,
2014-10-25 00:42:00,46.6,43.5,30.15,SW,231,0.0,0.0,89,0.00,,,0.00,meteohub,2014-10-25 04:42:00,
2014-10-25 00:47:00,46.8,43.3,30.15,SW,231,0.0,1.0,88,0.00,,,0.00,meteohub,2014-10-25 04:47:00,
2014-10-25 00:52:00,46.9,43.5,30.15,SW,231,0.0,1.0,88,0.00,,,0.00,meteohub,2014-10-25 04:52:00,
2014-10-25 00:57:00,46.6,43.0,30.15,SW,231,0.0,0.0,87,0.00,,,0.00,meteohub,2014-10-25 04:57:00,
2014-10-25 01:02:00,46.0,42.6,30.15,SW,231,0.0,0.0,88,0.00,,,0.00,meteohub,2014-10-25 05:02:00,
2014-10-25 01:07:00,45.7,42.3,30.15,SW,231,0.0,0.0,88,0.00,,,0.00,meteohub,2014-10-25 05:07:00,
2014-10-25 01:12:00,45.3,42.3,30.14,SW,231,0.0,0.0,89,0.00,,,0.00,meteohub,2014-10-25 05:12:00,
2014-10-25 01:17:00,45.3,42.6,30.14,SW,231,0.0,0.0,90,0.00,,,0.00,meteohub,2014-10-25 05:17:00,
2014-10-25 01:22:00,45.9,43.2,30.14,WSW,239,0.0,0.0,90,0.00,,,0.00,meteohub,2014-10-25 05:22:00,
2014-10-25 01:27:00,46.0,43.0,30.14,WSW,252,1.0,0.0,89,0.00,,,0.00,meteohub,2014-10-25 05:27:00,
2014-10-25 01:32:00,46.6,43.2,30.14,WSW,255,0.0,1.0,88,0.00,,,0.00,meteohub,2014-10-25 05:32:00,
2014-10-25 01:37:00,46.4,43.0,30.14,WSW,256,0.0,1.0,88,0.00,,,0.00,meteohub,2014-10-25 05:37:00,
2014-10-25 01:42:00,46.2,42.8,30.14,WSW,256,0.0,1.0,88,0.00,,,0.00,meteohub,2014-10-25 05:42:00,
2014-10-25 01:47:00,45.9,42.4,30.14,WSW,256,0.0,1.0,88,0.00,,,0.00,meteohub,2014-10-25 05:47:00,
2014-10-25 01:52:00,45.3,41.9,30.13,WSW,256,0.0,1.0,88,0.00,,,0.00,meteohub,2014-10-25 05:52:00,
2014-10-25 01:57:00,45.3,42.6,30.13,WSW,256,0.0,0.0,90,0.00,,,0.00,meteohub,2014-10-25 05:57:00,
2014-10-25 02:02:00,45.3,42.6,30.14,WSW,256,0.0,0.0,90,0.00,,,0.00,meteohub,2014-10-25 06:02:00,
2014-10-25 02:07:00,45.3,42.6,30.14,WSW,256,1.0,0.0,90,0.00,,,0.00,meteohub,2014-10-25 06:07:00,
2014-10-25 02:12:00,45.5,42.8,30.14,West,262,0.0,1.0,90,0.00,,,0.00,meteohub,2014-10-25 06:12:00,
2014-10-25 02:17:00,45.9,43.2,30.14,West,260,1.0,1.0,90,0.00,,,0.00,meteohub,2014-10-25 06:17:00,
2014-10-25 02:22:00,45.9,42.8,30.14,WSW,257,0.0,2.0,89,0.00,,,0.00,meteohub,2014-10-25 06:22:00,
2014-10-25 02:27:00,45.9,42.8,30.14,WSW,245,0.0,2.0,89,0.00,,,0.00,meteohub,2014-10-25 06:27:00,
2014-10-25 02:31:00,45.7,42.6,30.14,WSW,245,0.0,2.0,89,0.00,,,0.00,meteohub,2014-10-25 06:31:00,
2014-10-25 02:36:00,45.3,42.3,30.14,WSW,245,0.0,0.0,89,0.00,,,0.00,meteohub,2014-10-25 06:36:00,
2014-10-25 02:41:00,45.5,42.8,30.14,WSW,245,0.0,0.0,90,0.00,,,0.00,meteohub,2014-10-25 06:41:00,
2014-10-25 02:46:00,45.7,43.0,30.14,WSW,245,0.0,0.0,90,0.00,,,0.00,meteohub,2014-10-25 06:46:00,
2014-10-25 02:51:00,45.1,42.1,30.14,WSW,245,0.0,0.0,89,0.00,,,0.00,meteohub,2014-10-25 06:51:00,
2014-10-25 02:56:00,45.1,42.4,30.14,WSW,245,0.0,0.0,90,0.00,,,0.00,meteohub,2014-10-25 06:56:00,
2014-10-25 03:01:00,45.0,42.3,30.14,WSW,245,0.0,0.0,90,0.00,,,0.00,meteohub,2014-10-25 07:01:00,
2014-10-25 03:06:00,45.0,42.4,30.14,WSW,245,0.0,0.0,91,0.00,,,0.00,meteohub,2014-10-25 07:06:00,
2014-10-25 03:11:00,45.0,42.4,30.14,WSW,245,0.0,0.0,91,0.00,,,0.00,meteohub,2014-10-25 07:11:00,
2014-10-25 03:16:00,45.0,42.4,30.14,WSW,245,0.0,0.0,91,0.00,,,0.00,meteohub,2014-10-25 07:16:00,
2014-10-25 03:21:00,45.1,42.6,30.14,WSW,249,0.0,0.0,91,0.00,,,0.00,meteohub,2014-10-25 07:21:00,
2014-10-25 03:26:00,45.7,43.2,30.13,SSW,201,2.0,0.0,91,0.00,,,0.00,meteohub,2014-10-25 07:26:00,
2014-10-25 03:31:00,45.7,43.0,30.13,SSW,207,3.0,3.0,90,0.00,,,0.00,meteohub,2014-10-25 07:31:00,
2014-10-25 03:36:00,46.2,43.7,30.13,SW,224,2.0,4.0,91,0.00,,,0.00,meteohub,2014-10-25 07:36:00,
2014-10-25 03:41:00,46.8,44.1,30.13,SW,228,2.0,4.0,90,0.00,,,0.00,meteohub,2014-10-25 07:41:00,
2014-10-25 03:46:00,47.1,44.4,30.12,WSW,243,2.0,4.0,90,0.00,,,0.00,meteohub,2014-10-25 07:46:00,
2014-10-25 03:51:00,47.5,44.4,30.12,SSW,210,1.0,3.0,89,0.00,,,0.00,meteohub,2014-10-25 07:51:00,
2014-10-25 03:56:00,47.7,44.6,30.12,SW,226,1.0,3.0,89,0.00,,,0.00,meteohub,2014-10-25 07:56:00,
2014-10-25 04:01:00,47.8,44.4,30.12,WSW,238,1.0,2.0,88,0.00,,,0.00,meteohub,2014-10-25 08:01:00,
2014-10-25 04:07:00,48.0,44.6,30.12,SW,222,1.0,4.0,88,0.00,,,0.00,meteohub,2014-10-25 08:07:00,
2014-10-25 04:12:00,48.4,45.0,30.12,SSW,212,3.0,4.0,88,0.00,,,0.00,meteohub,2014-10-25 08:12:00,
2014-10-25 04:17:00,48.6,45.1,30.12,SW,225,3.0,4.0,88,0.00,,,0.00,meteohub,2014-10-25 08:17:00,
2014-10-25 04:22:00,49.1,45.7,30.12,WSW,248,2.0,5.0,88,0.00,,,0.00,meteohub,2014-10-25 08:22:00,
2014-10-25 04:27:00,49.3,45.5,30.12,WSW,258,2.0,5.0,87,0.00,,,0.00,meteohub,2014-10-25 08:27:00,
2014-10-25 04:31:00,49.5,45.7,30.12,SW,233,3.0,5.0,87,0.00,,,0.00,meteohub,2014-10-25 08:31:00,
2014-10-25 04:36:00,49.5,45.7,30.12,SW,231,4.0,5.0,87,0.00,,,0.00,meteohub,2014-10-25 08:36:00,
2014-10-25 04:41:00,49.8,46.0,30.12,SW,218,3.0,5.0,87,0.00,,,0.00,meteohub,2014-10-25 08:41:00,
2014-10-25 04:46:00,49.8,45.9,30.12,SW,224,3.0,5.0,86,0.00,,,0.00,meteohub,2014-10-25 08:46:00,
2014-10-25 04:51:00,49.8,46.0,30.11,SW,231,3.0,5.0,87,0.00,,,0.00,meteohub,2014-10-25 08:51:00,
2014-10-25 04:56:00,49.6,45.9,30.12,SW,229,3.0,4.0,87,0.00,,,0.00,meteohub,2014-10-25 08:56:00,
2014-10-25 05:01:00,49.6,45.9,30.11,SW,228,2.0,4.0,87,0.00,,,0.00,meteohub,2014-10-25 09:01:00,
2014-10-25 05:06:00,49.6,45.9,30.11,SSW,210,1.0,4.0,87,0.00,,,0.00,meteohub,2014-10-25 09:06:00,
2014-10-25 05:11:00,49.5,45.7,30.11,SW,219,2.0,4.0,87,0.00,,,0.00,meteohub,2014-10-25 09:11:00,
2014-10-25 05:16:00,49.3,45.5,30.11,WSW,239,1.0,3.0,87,0.00,,,0.00,meteohub,2014-10-25 09:16:00,
2014-10-25 05:21:00,48.9,45.5,30.11,WSW,239,1.0,2.0,88,0.00,,,0.00,meteohub,2014-10-25 09:21:00,
2014-10-25 05:26:00,48.9,45.5,30.11,WSW,239,0.0,2.0,88,0.00,,,0.00,meteohub,2014-10-25 09:26:00,
2014-10-25 05:31:00,48.7,45.3,30.11,WSW,239,0.0,1.0,88,0.00,,,0.00,meteohub,2014-10-25 09:31:00,
2014-10-25 05:36:00,48.4,45.0,30.11,WSW,239,0.0,1.0,88,0.00,,,0.00,meteohub,2014-10-25 09:36:00,
2014-10-25 05:41:00,48.2,45.1,30.11,WSW,239,0.0,1.0,89,0.00,,,0.00,meteohub,2014-10-25 09:41:00,
2014-10-25 05:46:00,47.8,44.8,30.11,WSW,239,0.0,1.0,89,0.00,,,0.00,meteohub,2014-10-25 09:46:00,
2014-10-25 05:51:00,47.1,44.1,30.11,WSW,239,0.0,0.0,89,0.00,,,0.00,meteohub,2014-10-25 09:51:00,
2014-10-25 05:56:00,46.9,44.2,30.11,WSW,239,0.0,0.0,90,0.00,,,0.00,meteohub,2014-10-25 09:56:00,
2014-10-25 06:01:00,46.9,44.4,30.11,WSW,239,0.0,1.0,91,0.00,,,0.00,meteohub,2014-10-25 10:01:00,
2014-10-25 06:06:00,46.8,44.2,30.11,WSW,239,0.0,1.0,91,0.00,,,0.00,meteohub,2014-10-25 10:06:00,
2014-10-25 06:11:00,46.6,44.1,30.11,WSW,239,0.0,1.0,91,0.00,,,0.00,meteohub,2014-10-25 10:11:00,
2014-10-25 06:16:00,46.0,43.5,30.11,WSW,239,0.0,1.0,91,0.00,,,0.00,meteohub,2014-10-25 10:16:00,
2014-10-25 06:22:00,45.7,43.2,30.11,WSW,239,0.0,1.0,91,0.00,,,0.00,meteohub,2014-10-25 10:22:00,
2014-10-25 06:27:00,45.5,43.3,30.11,WSW,239,0.0,0.0,92,0.00,,,0.00,meteohub,2014-10-25 10:27:00,
2014-10-25 06:32:00,45.5,43.3,30.12,WSW,239,0.0,0.0,92,0.00,,,0.00,meteohub,2014-10-25 10:32:00,
2014-10-25 06:37:00,45.1,43.0,30.12,WSW,239,0.0,0.0,92,0.00,,,0.00,meteohub,2014-10-25 10:37:00,
2014-10-25 06:42:00,45.1,43.2,30.11,West,260,0.0,0.0,93,0.00,,,0.00,meteohub,2014-10-25 10:42:00,
2014-10-25 06:47:00,45.1,43.2,30.11,SW,235,0.0,1.0,93,0.00,,,0.00,meteohub,2014-10-25 10:47:00,
2014-10-25 06:52:00,44.6,42.4,30.11,SW,229,0.0,1.0,92,0.00,,,0.00,meteohub,2014-10-25 10:52:00,
2014-10-25 06:57:00,44.2,42.3,30.11,SSW,204,0.0,1.0,93,0.00,,,0.00,meteohub,2014-10-25 10:57:00,
2014-10-25 07:02:00,44.1,42.1,30.10,SSW,204,1.0,1.0,93,0.00,,,0.00,meteohub,2014-10-25 11:02:00,
2014-10-25 07:07:00,44.4,42.8,30.10,SSW,205,0.0,1.0,94,0.00,,,0.00,meteohub,2014-10-25 11:07:00,
2014-10-25 07:12:00,45.0,43.7,30.10,SSW,203,0.0,1.0,95,0.00,,,0.00,meteohub,2014-10-25 11:12:00,
2014-10-25 07:17:00,45.3,44.1,30.10,SSW,204,0.0,1.0,95,0.00,,,0.00,meteohub,2014-10-25 11:17:00,
2014-10-25 07:22:00,45.1,43.9,30.10,SSW,204,0.0,1.0,95,0.00,,,0.00,meteohub,2014-10-25 11:22:00,
2014-10-25 07:27:00,45.0,43.3,30.09,SW,226,0.0,0.0,94,0.00,,,0.00,meteohub,2014-10-25 11:27:00,
2014-10-25 07:32:00,45.1,43.9,30.09,SW,226,0.0,1.0,95,0.00,,,0.00,meteohub,2014-10-25 11:32:00,
2014-10-25 07:37:00,44.8,43.2,30.09,SW,226,0.0,1.0,94,0.00,,,0.00,meteohub,2014-10-25 11:37:00,
2014-10-25 07:42:00,44.6,43.3,30.09,South,172,1.0,1.0,95,0.00,,,0.00,meteohub,2014-10-25 11:42:00,
2014-10-25 07:47:00,45.1,43.9,30.09,SE,140,1.0,1.0,95,0.00,,,0.00,meteohub,2014-10-25 11:47:00,
2014-10-25 07:52:00,43.9,41.9,30.09,WNW,297,0.0,3.0,93,0.00,,,0.00,meteohub,2014-10-25 11:52:00,
2014-10-25 07:57:00,43.5,41.9,30.09,West,270,0.0,3.0,94,0.00,,,0.00,meteohub,2014-10-25 11:57:00,
2014-10-25 08:02:00,43.7,42.4,30.09,SW,233,0.0,3.0,95,0.00,,,0.00,meteohub,2014-10-25 12:02:00,
2014-10-25 08:07:00,44.2,43.2,30.09,SW,233,0.0,0.0,96,0.00,,,0.00,meteohub,2014-10-25 12:07:00,
2014-10-25 08:12:00,45.7,45.0,30.09,SW,224,2.0,0.0,97,0.00,,,0.00,meteohub,2014-10-25 12:12:00,
2014-10-25 08:17:00,46.9,46.2,30.09,SW,226,4.0,4.0,97,0.00,,,0.00,meteohub,2014-10-25 12:17:00,
2014-10-25 08:22:00,48.0,47.1,30.10,WSW,250,2.0,5.0,97,0.00,,,0.00,meteohub,2014-10-25 12:22:00,
2014-10-25 08:27:00,48.9,47.8,30.09,SSW,208,4.0,5.0,96,0.00,,,0.00,meteohub,2014-10-25 12:27:00,
2014-10-25 08:32:00,49.6,48.6,30.09,WSW,239,6.0,8.0,96,0.00,,,0.00,meteohub,2014-10-25 12:32:00,
2014-10-25 08:37:00,50.4,48.9,30.10,SW,226,7.0,8.0,95,0.00,,,0.00,meteohub,2014-10-25 12:37:00,
2014-10-25 08:42:00,50.7,49.1,30.10,SSW,213,6.0,8.0,94,0.00,,,0.00,meteohub,2014-10-25 12:42:00,
2014-10-25 08:47:00,51.3,49.3,30.10,SSW,210,5.0,8.0,93,0.00,,,0.00,meteohub,2014-10-25 12:47:00,
2014-10-25 08:52:00,51.4,49.5,30.10,SSW,195,4.0,8.0,93,0.00,,,0.00,meteohub,2014-10-25 12:52:00,
2014-10-25 08:57:00,51.6,49.5,30.10,WSW,238,3.0,7.0,92,0.00,,,0.00,meteohub,2014-10-25 12:57:00,
2014-10-25 09:02:00,52.0,49.6,30.10,SW,228,4.0,7.0,92,0.00,,,0.00,meteohub,2014-10-25 13:02:00,
2014-10-25 09:07:00,52.2,49.8,30.10,SSW,212,6.0,7.0,92,0.00,,,0.00,meteohub,2014-10-25 13:07:00,
2014-10-25 09:12:00,52.5,50.0,30.10,SSW,201,7.0,8.0,91,0.00,,,0.00,meteohub,2014-10-25 13:12:00,
2014-10-25 09:17:00,52.7,50.2,30.09,SSW,200,5.0,9.0,91,0.00,,,0.00,meteohub,2014-10-25 13:17:00,
2014-10-25 09:22:00,53.1,50.5,30.09,SSW,210,6.0,9.0,91,0.00,,,0.00,meteohub,2014-10-25 13:22:00,
2014-10-25 09:27:00,53.2,50.7,30.09,SW,218,4.0,10.0,91,0.00,,,0.00,meteohub,2014-10-25 13:27:00,
2014-10-25 09:32:00,53.4,50.9,30.09,SSW,210,6.0,10.0,91,0.00,,,0.00,meteohub,2014-10-25 13:32:00,
2014-10-25 09:37:00,53.8,50.9,30.09,SSW,200,6.0,8.0,90,0.00,,,0.00,meteohub,2014-10-25 13:37:00,
2014-10-25 09:42:00,54.1,51.3,30.09,SW,214,7.0,8.0,90,0.00,,,0.00,meteohub,2014-10-25 13:42:00,
2014-10-25 09:47:00,54.3,51.4,30.09,SSW,212,5.0,10.0,90,0.00,,,0.00,meteohub,2014-10-25 13:47:00,
2014-10-25 09:52:00,54.3,51.1,30.09,WSW,249,3.0,10.0,89,0.00,,,0.00,meteohub,2014-10-25 13:52:00,